Location: Young's Pond
(41.2695°N, 72.7766°W)
Time: 03:04:40
(UTC-04:00)

Daily predictions for brighter satellites

Satellite Brightness Start Highest point End
(mag) Time Altitude Azimuth Time Altitude Azimuth Time Altitude Azimuth
Cosmos 1400 Rocket 4.1 00:05:57 33° ENE 00:05:57 33° ENE 00:08:59 10° NNE
Cosmos 304 Rocket 4.1 00:06:46 10° NNW 00:11:26 53° WSW 00:11:32 53° WSW
Cosmos 1455 3.7 00:09:52 10° NNW 00:12:57 29° W 00:12:57 29° W
Cosmos 1666 Rocket 3.7 00:14:40 68° W 00:14:44 69° W 00:19:13 10° N
Cosmos 1844 Rocket 3.0 00:16:14 46° ESE 00:16:17 46° ESE 00:21:36 10° NE
Cosmos 1943 4.4 00:15:10 10° NW 00:19:55 28° WSW 00:20:39 28° WSW
Cosmos 1862 Rocket 4.1 00:18:47 10° N 00:22:52 49° ENE 00:22:52 49° ENE
Cosmos 1933 Rocket 4.0 00:24:43 50° ENE 00:24:43 50° ENE 00:28:31 10° NNE
Cosmos 967 Rocket 4.4 00:18:25 10° NNW 00:24:50 89° ENE 00:26:22 55° SSE
Tsikada Rocket 3.9 00:23:22 56° S 00:24:52 86° E 00:31:16 10° N
In-Cosmos 22 Rocket 4.3 00:27:03 53° ESE 00:27:31 55° E 00:32:56 10° NNE
CZ-2C R/B 3.3 00:28:02 59° SSW 00:29:00 71° W 00:34:45 10° NNW
Lacrosse 5 3.7 00:27:14 10° WNW 00:29:38 18° WSW 00:29:38 18° WSW
Cosmos 1633 Rocket 3.6 00:33:49 50° WNW 00:33:49 50° WNW 00:38:02 10° N
Cosmos 1892 4.1 00:41:17 32° ENE 00:41:17 32° ENE 00:44:00 10° NNE
Cosmos 2242 Rocket 4.0 00:43:01 10° NNW 00:47:18 56° W 00:47:18 56° W
Cosmos 1703 Rocket 4.4 00:49:56 10° N 00:54:11 41° ENE 00:54:17 41° E
CZ-2C R/B 3.3 00:49:33 10° N 00:54:36 44° WNW 00:55:49 38° WSW
Cosmos 968 Rocket 3.7 00:53:51 54° WSW 00:54:40 60° WNW 00:59:53 10° NNE
Cosmos 489 Rocket 4.4 00:58:12 59° SSE 00:59:23 74° ESE 01:05:45 10° NNE
Cosmos 1470 Rocket 4.1 01:01:55 50° WNW 01:01:55 50° WNW 01:06:06 10° N
Cosmos 2278 Rocket 2.6 01:03:25 45° ESE 01:03:44 45° ESE 01:09:06 10° NE
Meteor 1-26 Rocket 4.0 00:58:34 10° N 01:04:08 89° E 01:04:49 70° SSE
BREEZE-M DEB 4.0 00:56:06 10° WSW 01:05:13 55° NNW 01:08:13 10° NE
H-2A R/B 3.6 01:03:10 10° NNE 01:07:06 36° E 01:07:06 36° E
Cosmos 1844 3.6 01:07:55 67° SSW 01:08:43 87° WNW 01:14:21 10° NNE
Cosmos 2084 Rocket 4.3 01:08:59 10° NW 01:11:30 39° NW 01:11:30 39° NW
Cosmos 1538 Rocket 4.0 01:07:40 10° NNW 01:13:01 68° WSW 01:13:18 67° SW
SL-24 R/B - RUBIN 2 3.7 01:10:07 10° NW 01:15:35 78° WSW 01:15:38 78° SW
Cosmos 1869 Rocket 3.9 01:17:09 54° ENE 01:17:09 54° ENE 01:21:09 10° NNE
COSMOS 2406 3.4 01:13:15 10° NNW 01:18:46 54° WSW 01:19:01 53° WSW
Okean 1-7 3.5 01:17:03 10° N 01:21:17 53° E 01:21:17 53° E
Cosmos 923 Rocket 4.2 01:16:27 10° NNW 01:21:39 65° ENE 01:22:36 54° ESE
ALOS 2 4.5 01:23:03 20° W 01:23:03 20° W 01:25:42 10° NW
Cosmos 2279 Rocket 4.0 01:16:26 10° N 01:22:42 76° E 01:24:20 51° SSE
CZ-4C R/B 2.9 01:22:54 33° W 01:24:52 48° NW 01:30:42 10° NNE
Cosmos 1689 Rocket 4.1 01:27:08 28° NNW 01:27:08 28° NNW 01:28:47 10° NNW
Cosmos 1461 3.8 01:27:08 37° ENE 01:27:08 37° ENE 01:29:54 10° NE
Meteor 2-10 Rocket 4.3 01:21:45 10° NNW 01:26:42 39° W 01:27:04 39° WSW
CZ-4B R/B 2.8 01:31:59 36° NW 01:31:59 36° NW 01:34:15 10° NNW
Cosmos 1315 Rocket 4.0 01:34:45 34° WNW 01:34:45 34° WNW 01:37:56 10° N
Landsat 5 3.8 01:36:20 57° WNW 01:36:20 57° WNW 01:40:00 10° NNW
Cosmos 2082 Rocket 3.5 01:32:06 10° N 01:37:17 36° ENE 01:41:12 16° ESE
Meteor 2-3 Rocket 4.0 01:36:55 50° WSW 01:38:03 60° WNW 01:43:49 10° N
Cosmos 1733 Rocket 4.4 01:41:56 28° ESE 01:42:23 29° E 01:46:09 10° NNE
ATLAS 3B R/B 3.8 01:41:11 28° SE 01:43:13 32° ESE 01:49:30 10° NE
PSLV R/B 3.7 01:40:05 10° NNE 01:44:27 63° E 01:44:32 63° ESE
Cosmos 1825 2.8 01:46:16 53° ENE 01:46:16 53° ENE 01:49:32 10° NNE
Cosmos 2112 Rocket 4.0 01:46:33 10° NNW 01:51:51 79° ENE 01:53:06 53° SE
Cosmos 44 3.9 01:53:36 38° ESE 01:53:36 38° ESE 01:57:43 10° NE
Cosmos 1782 2.9 01:50:22 10° N 01:54:05 74° NNW 01:54:05 74° NNW
Meteor 2-6 Rocket 4.1 01:52:06 10° N 01:57:41 86° E 01:59:07 52° SSE
Meteor 1-27 Rocket 4.2 01:52:31 10° N 01:58:24 58° ENE 02:00:55 33° SE
Cosmos 1408 3.0 01:59:38 59° N 01:59:38 59° N 02:02:38 10° N
Cosmos 1844 Rocket 4.2 01:57:52 19° W 02:00:22 26° NW 02:05:03 10° N
Timation 1 Rocket 4.3 01:59:59 51° SW 02:01:34 81° WNW 02:07:34 10° NNE
Cosmos 44 Rocket 3.3 02:02:28 57° SE 02:02:49 59° ESE 02:07:32 10° NE
Cosmos 1680 Rocket 3.4 01:59:27 10° NNW 02:04:43 68° WSW 02:05:27 60° SSW
PSLV R/B 4.3 02:08:59 52° ESE 02:09:39 60° ENE 02:13:46 10° N
Cosmos 1346 Rocket 4.2 02:06:59 10° NNW 02:09:34 27° WNW 02:09:34 27° WNW
Cosmos 1937 Rocket 4.1 02:09:42 38° SE 02:10:55 44° ESE 02:15:48 10° NNE
Helios 1A Rocket 2.9 02:06:49 10° NNE 02:10:57 68° ESE 02:11:08 67° ESE
Aureole 1 Rocket 4.4 02:04:27 10° NNW 02:11:19 81° WSW 02:15:28 33° S
Cosmos 1674 Rocket 4.4 02:08:06 10° N 02:12:22 44° ENE 02:13:45 33° ESE
Cosmos 1174 4.4 02:14:36 57° SSW 02:15:44 85° ESE 02:21:56 10° NNE
Resurs 1-4 Rocket 3.9 02:12:05 10° NE 02:16:11 22° E 02:19:00 15° SE
Cosmos 1092 Rocket 4.0 02:16:54 41° S 02:19:18 78° E 02:25:34 10° N
Meteor 2-20 4.5 02:18:11 40° S 02:20:30 75° E 02:26:41 10° NNE
Cosmos 1898 Rocket 3.4 02:22:53 53° S 02:24:10 84° ESE 02:29:26 10° NNE
Cosmos 1607 3.9 02:24:03 43° SW 02:26:14 87° WNW 02:32:33 10° NNE
Cosmos 990 Rocket 4.4 02:25:21 40° SSE 02:26:50 53° ESE 02:31:51 10° NNE
SeaSat 1 2.4 02:26:04 35° SSE 02:28:13 84° ENE 02:33:11 10° NNW
CZ-2D R/B 3.5 02:26:50 10° NE 02:31:34 30° E 02:34:35 18° SE
Cosmos 2026 Rocket 4.3 02:29:06 29° SSE 02:32:04 57° E 02:38:00 10° NNE
USA 238 DEB 4.2 02:31:18 32° S 02:34:14 50° ESE 02:40:56 10° NE
USA 238 4.2 02:31:24 32° S 02:34:20 50° ESE 02:41:02 10° NE
Cosmos 1606 4.1 02:33:15 10° NNW 02:36:00 26° WNW 02:36:00 26° WNW
ARIANE 5 R/B 3.9 02:33:31 10° NE 02:37:52 29° E 02:40:36 18° SE
SL-08 R/B 3.4 02:39:19 34° SSE 02:41:27 79° ENE 02:46:16 10° N
H-2A R/B 4.3 02:39:09 10° NNW 02:42:39 22° WNW 02:43:43 20° W
Cosmos 1340 2.5 02:39:19 10° NNW 02:43:05 68° W 02:43:13 67° WSW
CBERS-1 4.0 02:40:13 10° NNE 02:45:23 81° ESE 02:47:21 39° S
IRS-1D 4.4 02:43:05 10° NNE 02:47:54 40° E 02:50:35 23° SSE
Cosmos 2278 Rocket 3.6 02:45:15 19° W 02:47:59 27° NW 02:52:48 10° N
IRS-P3 4.1 02:49:30 10° N 02:54:51 72° WNW 02:57:02 36° SSW
Cosmos 1833 Rocket 2.8 02:51:03 10° NNW 02:56:34 56° WSW 02:58:54 33° S
NPP 3.6 02:51:39 10° N 02:57:02 74° WNW 02:59:20 35° SSW
CZ-3B DEB 4.1 02:43:53 10° NW 02:57:16 87° NE 03:08:29 10° SE
Cosmos 2369 Rocket 3.7 02:54:36 15° SSE 02:58:09 28° ESE 03:02:54 10° NE
Cosmos 1655 Rocket 4.1 02:55:49 26° S 02:59:35 75° E 03:05:50 10° N
Cosmos 2344 4.4 02:55:50 19° S 03:00:43 41° ESE 03:08:14 10° NE
GP-B 3.2 02:58:44 10° N 03:03:07 60° W 03:04:28 40° SW
COSMOS 2487 3.0 03:00:16 10° NNW 03:03:26 42° W 03:03:26 42° W
SL-16 R/B 2.6 03:01:34 14° SSE 03:07:03 82° ENE 03:13:19 10° NNW
UNK 3.9 03:04:26 20° SSE 03:07:37 75° ENE 03:12:19 10° N
Cosmos 2297 4.5 03:04:57 25° WSW 03:07:40 41° WNW 03:13:01 10° N
Cosmos 1437 3.6 03:08:09 10° N 03:11:19 48° ENE 03:12:58 24° SE
USA 267 3.8 03:05:48 10° ENE 03:12:02 45° SE 03:15:50 23° S
NOSS 3-2 (A) 4.2 03:11:19 21° S 03:14:54 44° ESE 03:20:58 10° NE
Cosmos 1975 Rocket 3.3 03:11:08 10° N 03:15:27 65° E 03:18:42 17° SSE
Cosmos 1812 3.0 03:12:15 10° N 03:16:06 67° E 03:18:29 22° SSE
Exosat Rocket 4.4 03:13:40 10° NW 03:19:03 46° WSW 03:24:04 19° S
ADEOS Rocket 3.5 03:12:36 10° N 03:20:16 73° WNW 03:25:04 23° SSW
Cosmos 2082 Rocket 3.0 03:16:20 10° NW 03:21:15 32° WSW 03:22:59 27° SW
Meteor 1-25 Rocket 4.3 03:19:09 21° S 03:22:57 76° E 03:28:36 10° NNE
Meteor 1-14 Rocket 4.3 03:20:21 24° SSW 03:24:02 81° W 03:30:04 10° N
USA 161 4.3 03:30:47 10° ESE 03:32:05 13° ENE 03:33:26 10° NE
ATLAS 3B R/B 3.2 03:28:26 20° WSW 03:33:38 58° NW 03:40:43 10° NNE
Cosmos 2266 Rocket 4.4 03:29:16 11° S 03:35:24 64° E 03:41:44 10° NNE
S3M 3.9 03:33:45 10° NNW 03:39:57 73° W 03:45:40 12° S
ADEOS 3.6 03:39:15 10° N 03:44:27 71° WNW 03:48:14 19° SSW
MOZ.5/SAFIR/RUBIN 5/SL-8 3.9 03:39:54 10° SSE 03:44:39 77° ENE 03:49:23 10° N
Cosmos 1048 Rocket 4.2 03:41:27 10° NNW 03:46:51 77° ENE 03:52:13 10° SSE
Gbstr 26 Del rocket 4.1 03:45:07 17° S 03:47:04 26° SE 03:50:15 10° ENE
BREEZE-M DEB (TANK) 4.5 03:36:27 10° NW 03:56:11 71° SW 04:01:45 10° SE
Resurs 1-4 Rocket 2.6 03:51:09 10° N 03:56:13 46° WNW 04:00:04 17° SW
Cosmos 1633 2.5 03:54:43 17° S 03:57:26 84° W 04:01:05 10° N
Okean 1 3.3 03:53:36 10° NNW 03:57:40 70° W 04:01:41 10° S
MOS 1 Rocket 3.6 03:57:54 10° N 04:03:17 73° WNW 04:08:00 12° SSW
BREEZE-M DEB (TANK) 3.0 03:56:48 15° SW 04:03:26 67° SSE 04:06:26 10° ENE
BREEZE M DEB (TANK) 2.3 04:04:03 20° S 04:05:03 31° SE 04:07:19 10° ENE
BREEZE-M DEB (TANK) 2.5 04:04:03 17° WSW 04:06:02 67° NNW 04:12:34 10° ENE
SeaSat 1 4.3 04:05:49 12° WSW 04:06:15 12° WSW 04:08:08 10° W
Meteor 1-13 Rocket 4.5 04:01:40 10° N 04:07:12 72° E 04:12:45 10° SSE
BREEZE-M R/B 3.1 04:02:27 10° WNW 04:08:19 76° NNE 04:11:25 10° ESE
Okean 2 Rocket 3.7 04:05:26 16° SW 04:08:31 39° WNW 04:12:41 10° N
GRACE-1 3.7 04:07:28 15° S 04:09:32 67° W 04:12:14 10° N
GRACE-2 3.7 04:07:53 15° S 04:09:58 67° W 04:12:41 10° N
Meteor 1-11 Rocket 4.1 04:05:45 10° S 04:11:22 67° E 04:17:10 10° NNE
CZ-2D R/B 3.0 04:06:47 10° N 04:11:37 35° WNW 04:15:55 13° SW
Cosmos 1125 Rocket 3.9 04:11:41 14° SW 04:16:05 50° WNW 04:21:15 10° N
ARIANE 5 R/B 3.5 04:12:33 10° N 04:16:57 32° WNW 04:20:57 12° SW
Cosmos 1441 Rocket 3.2 04:13:47 10° NNW 04:17:48 82° W 04:21:47 10° S
CZ-2D R/B 3.9 04:16:33 10° N 04:20:50 53° WNW 04:25:07 10° SSW
UNKNOWN OBJECT B 3.6 04:23:32 10° N 04:26:55 33° WNW 04:30:08 11° SW
Cosmos 1300 Rocket 3.7 04:23:15 10° S 04:27:41 84° E 04:32:09 10° N
Okean O Rocket 2.2 04:34:19 10° NNE 04:38:39 58° E 04:42:59 10° S
Cosmos 1943 Rocket 2.3 04:33:43 10° SSW 04:39:22 76° WNW 04:45:01 10° NNE
Cosmos 2369 Rocket 2.9 04:36:42 10° SW 04:41:57 41° WNW 04:47:17 10° N
PSLV R/B 3.7 04:41:17 10° WSW 04:44:27 47° SSE 04:47:40 10° E
Meteor 1-19 Rocket 4.4 04:40:01 10° NNW 04:45:28 55° W 04:50:59 10° S
Cosmos 405 Rocket 4.2 04:43:08 10° NW 04:46:08 21° W 04:49:04 10° SW
CZ-3B DEB 4.4 04:39:03 10° WNW 04:50:20 37° WSW 04:59:28 10° S
COSMOS 2455 3.0 04:45:12 10° SW 04:51:11 67° WNW 04:57:12 10° NNE
SL-16 R/B 4.1 04:47:59 10° WSW 04:51:22 15° W 04:54:46 10° NW
ADEOS II 2.1 04:46:46 10° NNE 04:52:04 84° WNW 04:57:19 10° SSW
